STARLINK-11168, 60183

Orbit data source: Space-Track

STARLINK-11168, 60183 is a payload satellite owned by SpaceX/Seattle (US) in LEO that was launched on Wed, 03 Jul 2024 UTC via an FALCON 9 launch vehicle from the Air Force Eastern Test Range (AFETR). Payload-class satellites include a variety of spacecraft equipped with specific instruments for various scientific and technological missions. These include communications satellites like Starlink; space stations such as the ISS; scientific satellites like the Hubble; Earth observation satellites from companies like Planet Labs, Umbra, and HawkEye 360; GPS; miniature CubeSats for education and research; and military/defense satellites.

Loading next visibility...
Identifier
60183, 2024-124A
Orbit
LEO
Last TLE update
20 hours ago
Origin
Manufacturer
SpaceX/Seattle
Mission
Operational Commercial Communications
Bus & Motor
STARLINK V2M, Unknown motor
Mass
730 kg wet, ~700 kg dry
Launch date (UTC)
2024-07-03 (10 months ago)
Launch vehicle
FALCON 9
Launch site
Air Force Eastern Test Range (AFETR)
Object type
Payload
Rocket body
Debris
Shape & HBR
Box + 2 Pan, 29 m
Radar Cross Section
36.964 m², Large (>1 m²)

Expand to show TLE details & history

TLE from 20 hours ago
0 STARLINK-11168
1 60183U 24124A   25119.15329234  .00010655  00000-0  92541-4 0  9990
2 60183  53.1575 271.7293 0000157  38.0631 322.0398 15.69747586 48334
Epoch: 2025-04-29T03:40Z
Definitive object data (Epoch: 2025-04-29T03:40:44.458Z)
Latitude
-0°
Longitude
-0.81299°
Altitude
360.451 km
Speed
7.694 km/s
True Right ascension
18h 06m 55s
True Declination
0° 00' 00"
Sunlit
Object was in full shadow at TLE epoch
Visualization TLE readout
Latitude
-31.91091°
Longitude
-32.50134°
Altitude
369.44 km
Speed
7.688 km/s
Apparent Right ascension
17h 20m 03s
Apparent Declination
-37° 38' 22"
Sunlit
Object is in full shadow
Visualization observer readout
Local Sidereal Time
06:54:18
Azimuth
90.477° ESE
Elevation
-71.545°
Doppler factor
1
Orbital elements
Apogee altitude
359.986 km
Perigee altitude
359.775 km
Semi-major axis
6,738.017 km
Eccentricity
0.0000157
Inclination
53.1575°
RAAN
271.7293°
Arg. of periapsis
38.0631°
True anomaly
322.03869°
Mean anomaly
322.0398°
Eccentric anomaly
322.03925°
Mean motion
3.92414 °/min
BSTAR
0.000092541
Orbital period
91.74 mins
Loading maneuver chart data...
Loading SW <> Apogee altitude chart data...
Loading historical data...
Loading historical data...
Loading historical data...
Loading historical data...
Loading historical data...
Loading historical data...
Loading historical data...

STARLINK-11168 Visibility forecast

Observer location: undefined°, undefined°

Span
Click to sort rows by Start time (UTC) header in descending order
Start Az.
Max El. time (UTC)
Max El. Az.
Max El.
End time (UTC)
End Az.
4 mins2025-04-30 11:56:06.885Z185.831° SSW2025-04-30 11:58:06.885Z130.38° SE24.313°2025-04-30 12:00:06.885Z77.957° E
|